Tracking 19720 objects as of 25-Jun-2019
HD Live streaming from Space Station
objects crossing your sky now

FENGYUN 1C DEB

Track FENGYUN 1C DEB now!
10-day predictions


NORAD ID: 37079
Int'l Code: 1999-025EFP
Perigee: 809.3 km
Apogee: 844.4 km
Inclination: 98.9 °
Period: 101.3 minutes
Semi major axis: 7197 km
RCS: 0.0038 m2 (small)
Launch date: May 10, 1999
Source: People's Republic of China (PRC)
Launch site: Taiyaun Space Center, China (TSC)

Note: This is SATELLITE DEBRIS
aabbcc
Your satellite tracking list
Your tracking list is empty




NASA's NSSDC Master Catalog

Two Line Element Set (TLE):
1 37079U 99025EFP 19175.36610569  .00000676  00000-0  32751-3 0  9990
2 37079  98.9124 232.3151 0024401 179.9631 180.1551 14.21672827537685
Source of the keplerian elements: AFSPC